Theta_e
315 315 314 314 314 314 314 314 314 314 314 314 314 314 314 314 314 314 314 315 316 317 316 316 317 317 314 304 304 334 353 348 347 339 326 323 322 311 308 311 314 315 315 316 321 335 335
313 313 314 314 313 313 314 314 314 313 313 313 313 313 314 314 314 315 315 315 315 316 316 317 317 316 308 298 310 315 320 337 329 331 322 318 316 315 310 310 313 314 316 323 328 334 335
314 314 314 314 314 313 313 313 313 313 313 313 313 313 314 314 314 315 315 315 315 316 318 319 317 315 308 303 311 313 318 325 327 325 316 321 317 314 313 310 315 313 319 324 329 333 331
313 313 313 313 313 313 313 313 313 313 312 312 312 313 313 314 314 314 314 314 314 319 322 319 318 315 300 310 314 311 313 313 328 323 319 321 320 315 312 313 311 309 320 315 325 331 332
312 312 312 313 313 313 312 312 312 312 312 313 313 313 313 313 313 313 312 313 316 321 320 320 314 311 301 316 310 312 312 309 317 318 317 320 317 312 311 307 308 306 310 314 317 331 330
312 312 313 313 312 312 312 312 311 312 313 313 313 313 313 313 312 312 312 311 317 321 319 320 317 305 307 306 312 313 311 310 308 308 309 314 312 308 308 305 303 305 307 315 315 322 327
312 312 312 312 312 312 311 311 311 312 313 313 313 313 313 312 311 311 308 306 301 301 301 303 305 304 307 312 313 312 310 308 311 309 306 311 307 302 305 307 310 309 310 312 317 320 323
311 311 311 312 312 312 311 311 312 312 313 313 313 313 313 312 311 309 303 299 297 297 292 302 300 302 307 310 303 308 311 306 307 302 308 305 304 308 308 308 307 308 307 310 316 319 321
312 312 312 312 311 311 311 312 312 313 313 313 312 312 312 310 310 303 300 299 303 302 294 299 302 302 304 305 304 306 308 307 304 302 305 304 306 310 307 306 305 306 307 306 311 316 318
311 311 311 311 311 311 312 312 312 313 312 312 312 312 311 309 302 301 298 301 303 302 293 296 298 302 304 306 302 311 311 308 305 301 305 306 309 308 306 304 308 305 307 308 313 313 308
311 311 311 311 311 312 312 312 312 312 312 311 311 311 310 307 301 300 302 303 305 299 283 299 300 307 306 303 306 306 312 308 303 303 306 303 306 305 304 305 308 307 308 308 312 310 311
311 311 310 311 311 311 312 312 312 312 312 311 311 310 310 303 302 304 304 304 300 291 283 295 300 298 300 303 304 307 307 311 310 305 306 306 309 309 308 309 308 308 307 307 308 307 301
311 310 310 310 311 311 312 312 311 311 311 311 310 309 305 305 299 305 303 300 289 284 296 293 293 296 296 297 301 304 303 303 301 298 299 303 305 309 311 306 308 307 306 299 298 298 300
311 310 309 309 311 311 311 311 311 311 311 311 309 307 301 302 304 303 300 293 281 288 290 296 295 295 294 297 299 302 302 300 305 304 300 297 295 304 310 308 304 305 306 302 296 296 300
310 310 310 309 310 311 311 311 311 311 311 310 308 301 299 301 302 302 296 283 284 288 293 292 293 291 292 295 294 298 301 301 304 305 299 298 298 306 307 310 309 305 301 309 304 300 302
310 310 309 309 309 311 311 312 312 311 311 309 301 295 296 300 302 301 292 285 286 292 295 293 288 291 288 291 292 293 300 305 303 306 308 304 297 304 306 309 309 306 309 300 301 298 297
310 309 309 309 308 310 311 312 311 311 309 307 297 293 298 303 301 296 286 287 290 296 296 292 290 290 291 290 292 292 295 302 307 305 307 305 303 301 306 303 303 302 302 303 306 304 300
310 310 309 309 310 310 311 311 311 310 308 304 296 287 300 302 293 292 290 290 293 294 297 294 294 292 291 292 291 291 292 300 302 306 302 306 303 299 301 308 309 308 305 305 301 299 303
310 309 309 309 309 310 311 311 311 309 307 301 292 290 300 300 285 285 289 290 292 292 294 294 292 293 295 292 290 293 294 300 301 302 304 306 302 297 298 302 304 304 305 306 307 307 303
310 310 309 309 309 310 311 312 311 309 308 301 294 287 293 294 293 288 285 287 288 295 294 295 294 295 293 292 295 292 293 297 300 302 309 308 303 301 296 300 304 301 303 303 305 302 304
310 310 310 309 309 311 312 311 311 309 307 302 293 288 291 285 287 288 288 287 286 289 294 294 292 292 290 289 291 292 294 295 300 302 303 304 300 303 304 304 305 304 302 302 302 305 302
310 310 310 310 309 310 311 311 311 309 305 299 292 291 293 288 289 287 287 286 287 288 289 291 290 292 292 290 292 290 293 294 295 298 299 302 301 303 301 304 304 302 304 304 304 305 305
310 310 310 309 309 310 310 311 310 308 304 298 298 298 293 287 287 286 287 287 286 289 291 293 292 290 290 293 294 295 296 297 297 294 295 298 302 301 297 302 302 299 304 304 305 307 306
310 310 310 309 309 310 309 310 310 309 306 300 299 298 289 284 286 286 287 289 288 289 288 292 293 291 295 298 298 297 295 295 296 296 296 296 299 302 299 301 292 304 309 308 306 307 308
311 310 310 309 309 310 310 310 310 310 308 302 300 297 291 285 288 288 289 289 290 291 290 291 294 296 297 295 293 292 294 295 297 297 296 296 298 299 297 297 300 302 306 306 307 309 316
310 310 310 310 309 309 310 310 311 310 308 304 300 303 296 288 288 291 289 290 287 288 289 290 296 298 297 296 292 289 290 293 294 295 298 296 299 298 298 295 293 302 304 308 310 305 313
310 310 310 310 310 310 310 310 310 310 309 304 301 302 298 290 292 292 289 289 292 290 287 289 291 292 296 293 292 290 290 295 291 293 294 295 297 296 299 298 300 301 304 307 302 304 309
310 309 310 310 310 310 310 310 310 310 310 305 301 301 298 293 293 295 295 292 292 291 287 291 291 291 291 289 289 290 291 293 295 295 295 296 296 297 298 299 296 303 304 304 303 307 308
309 309 309 309 310 310 310 310 310 310 310 308 299 301 302 296 294 298 299 299 298 297 293 294 291 290 292 289 290 292 291 292 293 292 298 294 295 298 300 298 302 303 302 304 305 305 307
Wind_Speed
18 19 19 19 20 21 21 22 22 22 23 24 25 25 26 26 26 27 27 26 24 23 22 17 13 10 4 2 11 7 8 12 17 9 11 10 12 6 6 4 5 8 7 6 12 12 11
19 18 19 20 20 20 21 21 22 23 23 24 25 25 26 27 27 27 27 25 25 24 22 16 9 4 3 8 3 5 8 10 11 15 11 8 9 6 3 4 6 1 5 3 11 11 12
19 19 19 19 20 21 21 22 22 22 23 24 25 25 26 27 29 28 29 27 26 24 19 11 10 6 4 16 4 4 3 6 6 15 12 13 3 4 3 4 4 1 3 8 11 14 7
19 19 19 20 20 21 22 22 23 23 24 25 25 26 26 28 29 31 31 28 26 17 6 7 13 5 10 3 5 9 8 0 7 7 1 7 4 3 4 5 2 3 3 6 8 14 9
19 19 20 20 21 21 22 23 24 25 25 25 25 26 26 27 30 31 31 26 13 9 14 18 8 3 9 1 4 8 10 14 7 3 1 5 5 3 4 5 4 3 5 6 9 14 9
18 19 19 20 21 21 22 23 24 25 25 26 27 27 28 29 30 30 31 20 4 7 6 4 4 4 6 1 2 4 8 15 6 11 5 4 4 6 5 9 11 11 6 9 9 14 12
18 19 20 21 21 22 22 23 23 24 24 24 26 28 30 31 29 31 15 0 4 1 4 7 6 9 9 10 4 4 7 13 9 10 12 9 9 16 17 19 4 10 8 14 10 11 15
18 18 18 19 20 20 22 23 24 24 25 25 26 27 28 32 30 20 5 7 6 5 14 14 20 18 22 8 7 3 14 11 14 14 12 8 18 17 9 10 10 9 10 11 7 11 14
17 18 18 19 19 21 22 22 23 24 24 26 27 28 28 32 26 4 5 7 7 5 7 11 9 8 9 15 12 9 14 8 17 18 23 17 11 15 12 12 13 11 13 9 11 8 3
18 19 18 19 20 21 22 23 23 24 25 26 27 27 26 32 2 7 2 6 10 5 6 7 5 5 6 8 11 19 18 8 8 23 20 14 9 20 16 20 17 17 10 8 11 13 11
17 18 19 20 21 21 22 23 24 24 26 27 27 27 26 9 6 5 11 12 12 5 8 4 2 1 4 11 2 14 18 9 15 14 13 15 19 16 21 25 20 13 12 11 7 7 6
17 18 19 20 21 22 21 22 23 24 25 27 29 28 27 0 2 6 11 12 2 2 10 7 5 6 2 11 4 5 15 8 5 9 14 13 4 17 19 15 18 13 11 6 4 4 9
18 18 19 20 21 21 20 21 22 23 24 26 29 28 12 3 6 11 11 2 4 6 8 7 10 13 13 7 8 7 20 23 17 16 17 14 12 10 16 16 15 11 17 7 8 8 9
18 18 19 20 19 19 20 21 21 23 24 26 30 24 6 4 8 9 4 2 7 5 10 8 11 18 8 6 7 12 15 24 21 14 16 18 18 15 17 16 15 22 19 10 11 9 11
18 18 19 19 19 19 19 20 21 22 23 24 26 6 3 5 11 2 2 5 6 6 3 8 13 9 5 4 7 6 16 25 25 23 15 16 15 19 9 11 17 22 12 7 7 2 9
18 19 19 19 19 19 19 20 21 22 23 23 9 5 4 12 5 1 3 5 6 3 4 2 8 3 6 11 9 10 12 16 27 24 14 11 11 13 24 16 13 15 17 12 4 11 12
18 18 18 19 19 19 19 19 20 20 20 15 3 4 4 12 2 0 4 4 6 9 8 5 5 5 5 10 9 6 3 6 24 20 16 13 10 11 20 19 20 10 16 6 10 7 12
18 17 17 18 17 19 18 18 18 16 16 6 4 4 7 9 1 2 2 7 7 11 9 11 9 10 11 10 8 6 5 6 13 7 18 12 8 9 16 23 14 18 15 19 12 9 6
17 18 18 17 17 18 18 16 16 14 9 4 5 4 4 6 4 5 8 9 7 7 6 5 6 3 2 4 6 8 5 4 11 10 11 14 9 10 10 9 9 24 14 10 9 9 16
18 18 17 17 16 18 16 16 15 12 6 1 3 4 3 4 2 7 10 10 7 7 14 7 7 3 2 6 9 10 8 8 15 8 11 4 8 19 13 16 10 21 20 13 14 12 14
18 18 17 17 16 17 17 15 13 10 5 1 2 2 2 5 4 12 7 9 11 4 6 4 3 8 5 4 3 5 5 8 6 9 5 4 18 12 13 7 17 17 21 18 20 17 15
19 18 18 17 16 17 16 15 13 6 2 1 3 2 0 7 7 8 7 3 6 6 4 5 7 17 11 3 2 5 8 3 3 9 7 7 8 17 17 14 13 17 17 20 22 21 20
20 19 19 18 17 17 17 15 13 3 2 1 1 1 1 5 5 5 4 7 11 15 5 7 12 17 9 3 12 16 14 16 14 7 6 6 2 12 20 14 17 17 16 17 16 17 18
20 20 19 19 17 17 17 15 14 6 7 2 2 1 2 5 5 7 11 15 12 13 6 10 11 13 7 21 20 9 8 14 13 13 11 6 4 4 11 12 20 12 18 14 14 7 12
20 20 19 19 18 17 17 15 13 12 8 3 3 3 3 6 6 12 6 7 12 11 4 7 16 12 18 11 5 4 4 4 9 8 11 12 4 3 7 15 3 7 6 5 12 6 6
19 19 19 18 17 18 18 16 14 12 6 3 3 3 2 4 3 7 7 9 6 5 5 8 15 14 7 4 3 3 4 1 5 7 5 7 5 5 4 16 14 7 11 7 4 11 9
19 18 18 17 17 17 16 16 16 14 7 4 2 5 2 4 5 6 5 3 4 5 5 9 10 6 7 5 1 3 2 5 0 1 3 6 4 5 2 5 6 12 9 4 12 3 11
18 18 17 16 16 16 15 15 15 13 10 5 1 7 4 3 8 8 7 10 7 4 4 7 6 3 5 7 5 4 3 5 2 6 4 2 2 2 2 3 6 17 4 1 7 7 9
18 16 16 15 15 15 14 14 14 12 10 4 2 3 3 3 6 3 11 14 13 9 8 3 6 5 5 5 5 3 4 5 6 2 5 1 5 3 6 7 7 9 13 8 7 9 12
Wind_Direction
24 21 18 16 14 11 8 5 3 1 357 354 350 346 342 338 334 329 324 320 315 309 306 301 301 313 314 225 247 170 125 146 165 190 174 185 173 173 210 209 187 236 288 288 229 166 156
21 18 15 15 11 9 6 3 0 358 355 352 347 343 339 335 331 325 322 320 315 306 297 285 269 265 194 247 209 186 235 168 185 190 190 179 198 217 247 236 229 148 307 6 152 148 142
19 16 13 12 10 6 4 2 359 355 352 349 345 341 337 333 328 325 323 321 317 309 297 264 207 190 214 242 157 120 103 192 194 182 182 197 201 214 177 252 284 303 145 97 148 145 133
18 16 13 10 8 5 1 359 356 353 350 346 343 339 336 331 328 326 323 323 321 313 313 150 164 185 247 239 270 258 235 273 166 190 190 194 188 260 248 305 240 191 192 177 169 171 152
17 14 10 7 5 2 359 356 354 351 347 344 341 338 336 333 330 327 322 321 323 59 103 125 135 233 257 138 210 222 196 215 155 162 74 121 163 197 189 229 187 202 193 187 163 196 156
14 11 8 5 2 360 357 355 354 351 347 344 341 337 337 336 333 327 324 317 164 109 133 221 120 252 236 226 223 159 190 158 162 181 196 186 143 195 183 195 193 186 199 202 183 189 194
12 9 3 2 359 357 355 353 351 349 347 344 339 336 336 334 334 326 334 6 337 193 358 274 290 279 284 324 265 194 155 171 138 169 172 186 191 202 195 201 241 190 200 203 193 176 193
7 5 0 359 357 355 353 351 349 347 346 342 337 336 337 331 333 328 325 75 76 296 299 261 245 253 256 279 306 209 158 159 179 181 154 158 213 206 217 214 225 195 186 208 200 163 205
3 1 358 355 355 354 351 349 348 346 344 341 337 336 338 331 328 20 11 82 348 291 255 286 225 228 219 190 219 229 187 165 186 178 189 197 204 197 207 203 206 202 197 182 214 152 176
357 357 355 353 353 351 349 347 346 344 342 338 335 335 339 330 42 338 87 335 332 257 282 272 231 254 173 174 229 207 194 172 181 196 185 211 183 188 195 212 204 207 194 176 166 180 214
354 352 351 352 350 349 347 344 344 343 340 336 333 335 338 346 307 329 321 327 322 221 301 47 126 109 162 209 12 194 182 188 187 169 182 189 191 184 197 204 195 216 167 180 165 159 185
353 352 353 350 349 348 344 341 340 340 338 332 329 334 336 216 252 275 319 311 203 199 250 318 22 13 343 231 266 121 183 194 156 158 206 187 209 182 203 203 196 139 123 84 87 190 223
349 348 348 347 347 342 339 338 339 336 335 330 326 331 332 297 338 331 317 319 224 211 320 340 338 337 319 261 222 206 189 183 176 174 185 189 176 188 186 187 197 195 168 159 197 206 224
343 342 344 345 341 337 338 338 336 333 334 330 326 325 325 261 308 328 297 178 237 212 234 336 334 317 275 339 233 202 198 194 196 188 169 185 201 183 188 198 184 200 192 192 194 196 206
337 339 341 341 338 336 336 336 334 332 333 330 323 333 315 339 330 295 279 232 235 223 289 321 335 306 296 342 354 284 210 208 193 183 172 187 209 193 181 185 180 186 205 197 191 45 209
335 338 338 336 336 332 334 335 334 334 333 332 325 327 289 341 341 301 219 253 268 285 344 325 265 333 317 337 319 337 193 206 202 201 194 186 193 197 190 190 190 197 178 184 223 190 212
334 336 332 332 334 329 331 334 334 336 335 338 353 327 9 345 265 29 264 288 307 311 307 274 235 280 273 317 320 299 311 22 198 195 210 167 214 162 185 199 181 166 189 217 195 233 211
330 330 328 331 330 327 329 331 334 337 339 360 355 313 8 334 285 46 316 319 313 291 294 260 252 256 271 290 291 285 314 11 357 280 203 183 191 197 191 195 211 200 191 194 196 183 229
323 325 329 328 329 322 323 328 333 336 12 332 338 287 331 315 32 1 327 299 264 282 313 299 271 245 217 251 284 274 280 333 7 354 218 184 204 172 182 179 200 203 185 190 211 176 199
320 323 323 323 325 313 321 326 327 335 9 66 323 323 335 23 22 359 332 300 298 295 279 279 293 322 301 241 234 275 299 314 334 335 321 258 192 212 204 203 167 197 195 203 201 203 189
315 313 315 318 316 313 322 325 326 334 8 298 0 21 32 314 332 323 295 279 282 295 294 298 205 22 332 257 256 255 317 312 291 2 348 274 209 200 204 169 189 180 193 198 213 219 215
308 308 308 307 310 312 315 318 328 333 17 320 315 324 39 295 299 300 298 309 307 347 291 315 349 331 327 259 45 323 346 280 343 328 350 355 202 202 215 196 196 202 196 195 208 212 227
303 302 303 307 308 307 308 312 318 302 62 317 143 236 267 288 289 294 293 332 314 319 274 260 318 322 306 40 317 288 274 265 273 304 314 344 213 182 213 199 216 229 200 197 201 208 208
299 301 302 303 302 299 302 304 308 301 187 178 205 218 252 285 270 287 295 311 308 335 269 297 307 302 308 321 300 258 235 244 251 242 242 304 321 225 189 178 219 231 226 209 209 200 217
302 301 301 300 298 296 293 295 299 301 214 178 160 181 223 274 271 281 265 316 299 307 269 294 301 303 308 296 273 255 176 208 231 218 214 222 296 169 185 194 143 114 40 221 189 154 30
304 302 299 297 297 293 295 297 290 290 287 201 178 171 211 281 263 276 300 305 304 325 347 273 294 311 298 267 257 258 196 326 159 139 78 167 245 306 178 185 204 56 336 342 294 195 21
310 306 303 299 295 294 293 295 297 294 281 172 218 172 201 249 268 237 238 309 312 316 290 291 336 316 343 332 58 23 41 324 43 164 135 141 163 233 219 167 102 351 320 295 188 113 344
316 313 309 304 299 293 292 292 292 297 300 180 195 184 180 241 275 228 245 268 266 249 284 335 291 3 349 29 3 23 359 28 316 31 359 51 191 144 221 176 150 353 62 136 0 344 342
320 318 314 310 305 300 296 295 295 288 292 227 193 175 160 253 284 288 265 265 241 259 290 291 317 299 357 351 4 324 4 355 351 73 1 78 13 46 360 85 84 57 72 37 13 356 352